TIANMU-1 07

Last updated on Sun Oct 06 2024 00:02:18 GMT+0000 (Coordinated Universal Time)

1 57399U 23101A 24279.49804083 .00019700 00000+0 92948-3 0 9991 2 57399 97.3503 333.6363 0005738 149.0222 211.1353 15.19482854 67165
UTC large
Height (km)
Speed (km/s)
/
Latitude / Longitude
Inclination (degrees)
Orbital Period (minutes)
Azimuth
Elevation
Range (km)
Doppler Factor

Next 0 passes for location: London (51.5072 / 0.1276)

Sorry there are no passes over London.